Regional Weather Roundup
Issued by NWS

Home | Current Version | Previous Version | Graphics & Text | Print | Product List | Glossary On
Versions: 1 2 3 4 5 6 7 8 9 10 11 12 13 14 15 16 17 18 19 20 21 22 23 24 25 26 27 28 29 30 31 32 33 34 35 36 37 38 39 40 41 42 43 44 45 46 47 48 49 50
000
ASUS43 KBIS 300910
RWRND

NORTH DAKOTA REGIONAL WEATHER ROUNDUP
NATIONAL WEATHER SERVICE BISMARCK ND
400 AM CDT TUE JUN 30 2015

NOTE: "FAIR" INDICATES FEW OR NO CLOUDS BELOW 12,000 FEET WITH NO
SIGNIFICANT WEATHER AND/OR OBSTRUCTIONS TO VISIBILITY.


NDZ001>003-009>011-017-301000-
NORTHWEST NORTH DAKOTA

CITY           SKY/WX    TMP DP  RH WIND       PRES   REMARKS
WILLISTON      CLOUDY    70  58  65 CALM      29.94F HAZE
MINOT          CLOUDY    65  61  87 NE6       29.95R
MINOT AFB      CLOUDY    66  66 100 E7        29.94S
$$

NDZ018>021-031>035-040>046-301000-
SOUTHWEST NORTH DAKOTA

CITY           SKY/WX    TMP DP  RH WIND       PRES   REMARKS
BISMARCK       CLOUDY    69  65  86 E10       29.93F
DICKINSON      MOCLDY    68  59  73 NE9       29.94R
GARRISON         N/A     69  64  84 SE6       29.95S
HETTINGER ARPT CLOUDY    67  62  84 NE6       29.93F
$$

NDZ004>008-012>016-024-026-027-054-301000-
NORTHEAST NORTH DAKOTA

CITY           SKY/WX    TMP DP  RH WIND       PRES   REMARKS
GRAND FORKS    PTCLDY    56  55  97 NW3       29.93F FOG
GRND FRKS AFB  PTCLDY    57  56  96 NW5       29.94F
DEVILS LAKE    MOCLDY    61  55  82 CALM      29.96S
$$

NDZ022-023-025-028>030-036>039-047>053-301000-
SOUTHEAST NORTH DAKOTA

CITY           SKY/WX    TMP DP  RH WIND       PRES   REMARKS
FARGO          PTCLDY    60  57  89 CALM      29.92F FOG
JAMESTOWN      MOCLDY    63  59  87 E6        29.93F
$$



USA.gov is the U.S. government's official web portal to all federal, state and local government web resources and services.